This is the latest recevied weather packets stored in our database for station/object IW2LSY-11. If no packets are shown the sender has not sent any weather packets the latest 10 day(s).
| Time | Temp. | Humidity | Pressure | Rain* | Wind** | Luminosity | Snow |
|---|---|---|---|---|---|---|---|
| 1777444811 | 14.44° C | 87% | 1018.4 hPa | - | - | 375 W/m² | - |
| 1777444211 | 15° C | 83% | 1018.4 hPa | - | - | 376 W/m² | - |
| 1777443611 | 15° C | 83% | 1018.3 hPa | - | - | 376 W/m² | - |
| 1777443012 | 13.89° C | 86% | 1018.3 hPa | - | - | 377 W/m² | - |
| 1777442413 | 13.89° C | 87% | 1018.3 hPa | - | - | 378 W/m² | - |
| 1777441813 | 14.44° C | 92% | 1018.3 hPa | - | - | 378 W/m² | - |
| 1777441213 | 13.89° C | 92% | 1018.4 hPa | - | - | 378 W/m² | - |
| 1777440613 | 13.89° C | 93% | 1018.4 hPa | - | - | 379 W/m² | - |
| 1777440013 | 13.33° C | 95% | 1018.5 hPa | - | - | 379 W/m² | - |
| 1777439413 | 13.33° C | 96% | 1018.4 hPa | - | - | 380 W/m² | - |
| 1777438813 | 13.33° C | 98% | 1018.3 hPa | - | - | 380 W/m² | - |
| 1777438213 | 12.78° C | 99% | 1018.2 hPa | - | - | 381 W/m² | - |
| 1777437613 | 12.78° C | 10% | - | - | - | 381 W/m² | - |
| 1777437013 | 12.78° C | 10% | - | - | - | 381 W/m² | - |
| 1777436412 | 13.89° C | 94% | 1018.3 hPa | - | - | 382 W/m² | - |
| 1777435813 | 13.33° C | 97% | 1018.4 hPa | - | - | 383 W/m² | - |
| 1777435213 | 13.33° C | 10% | - | - | - | 383 W/m² | - |
| 1777434613 | 13.89° C | 94% | 1018.6 hPa | - | - | 383 W/m² | - |
| 1777434013 | 13.89° C | 97% | 1018.6 hPa | - | - | 384 W/m² | - |
| 1777433414 | 13.33° C | 94% | 1018.6 hPa | - | - | 384 W/m² | - |
| 1777432813 | 13.89° C | 91% | 1018.6 hPa | - | - | 385 W/m² | - |
| 1777432214 | 13.89° C | 95% | 1018.5 hPa | - | - | 385 W/m² | - |
| 1777431614 | 13.33° C | 97% | 1018.5 hPa | - | - | 385 W/m² | - |
| 1777431013 | 13.89° C | 94% | 1018.5 hPa | - | - | 386 W/m² | - |
| 1777430414 | 13.89° C | 94% | 1018.5 hPa | - | - | 386 W/m² | - |
* Rain since midnight (hover to see other rain measurements)
** Current wind speed in m/s (hover to see current wind gust speed)